Retour au catalogue

STARLINK-38039

ActifCommunicationsSSO
NORAD 69719·PAYLOAD·🇺🇸 United States

Lancé Jun 28, 2026 depuis Vandenberg Space Force Base

Loading…

Prochains Passages (prochaines 24 heures)

TLE

FraisSource: CelesTrak SupGP

Époque: Sep 14, 2026, 23:38 UTC

1 69719C 26147R   26257.98520833  .00064529  00000+0  20035-2 0  2576
2 69719  97.2834 294.4479 0000967  97.5464 132.6897 15.33400478    15

Suivez STARLINK-38039 en temps réel avec AllMySat

Download on the App Store